This is the latest recevied weather packets stored in our database for station/object KM4NDN. If no packets are shown the sender has not sent any weather packets the latest 10 day(s).
| Time | Temp. | Humidity | Pressure | Rain* | Wind** | Luminosity | Snow |
|---|---|---|---|---|---|---|---|
| 1777474671 | 10.56° C | 92% | 1009.6 hPa | 0 mm | - | 45 W/m² | - |
| 1777474368 | 10.56° C | 92% | 1009.6 hPa | 0 mm | - | 53 W/m² | - |
| 1777474063 | 10.56° C | 92% | 1009.3 hPa | 0 mm | - | 82 W/m² | - |
| 1777473762 | 10.56° C | 92% | 1009.2 hPa | 0 mm | - | 73 W/m² | - |
| 1777473458 | 10.56° C | 92% | 1008.8 hPa | 0 mm | - | 110 W/m² | - |
| 1777473154 | 10.56° C | 93% | 1009 hPa | 0 mm | - | 80 W/m² | - |
| 1777472852 | 10.56° C | 93% | 1008.8 hPa | 0 mm | - | 129 W/m² | - |
| 1777472547 | 10.56° C | 93% | 1008.9 hPa | 0 mm | - | 116 W/m² | - |
| 1777472244 | 10.56° C | 93% | 1008.7 hPa | 0 mm | - | 66 W/m² | - |
| 1777471940 | 10.56° C | 93% | 1008.6 hPa | 0 mm | - | 123 W/m² | - |
| 1777471637 | 10.56° C | 93% | 1008.6 hPa | 0 mm | - | 105 W/m² | - |
| 1777471334 | 10.56° C | 93% | 1008.8 hPa | 1.27 mm | - | 69 W/m² | - |
| 1777471030 | 11.11° C | 92% | 1008.7 hPa | 1.78 mm | - | 55 W/m² | - |
| 1777470727 | 11.11° C | 92% | 1008.9 hPa | 0 mm | - | 69 W/m² | - |
| 1777470423 | 11.11° C | 92% | 1008.8 hPa | 0 mm | - | 58 W/m² | - |
| 1777470120 | 11.11° C | 92% | 1009 hPa | 0 mm | - | 99 W/m² | - |
| 1777469816 | 11.11° C | 93% | 1009.3 hPa | 0 mm | - | 100 W/m² | - |
| 1777469512 | 11.11° C | 93% | 1009.1 hPa | 0 mm | - | 87 W/m² | - |
| 1777469207 | 11.11° C | 93% | 1009.1 hPa | 0 mm | - | 79 W/m² | - |
| 1777468907 | 11.67° C | 93% | 1009.4 hPa | 0 mm | - | 59 W/m² | - |
| 1777468604 | 11.67° C | 92% | 1009.2 hPa | 0 mm | - | 65 W/m² | - |
| 1777468301 | 11.67° C | 92% | 1009.5 hPa | 0 mm | - | 57 W/m² | - |
| 1777467996 | 11.67° C | 93% | 1009.3 hPa | 0 mm | - | 76 W/m² | - |
| 1777467692 | 11.67° C | 93% | 1009.1 hPa | 0 mm | - | 94 W/m² | - |
| 1777467387 | 11.67° C | 93% | 1009 hPa | 0 mm | - | 103 W/m² | - |
* Rain latest hour (hover to see other rain measurements)
** Current wind speed in m/s (hover to see current wind gust speed)